Location: Beddau
(51.5575°N, 3.3561°W)
Time: 01:48:41
(UTC+00:00)

MetOp-A - Pass Details

Date: 03 March 2021
Orbit: 819 x 821 km, 98.5° (Epoch: 13 April)

Event Time Altitude Azimuth Distance (km) Brightness Sun altitude
Exits shadow 19:27:03 - 156° (SSE) 3,371 7.0 -14.7°
Rises 19:27:07 0° 156° (SSE) 3,344 7.0 -14.7°
Reaches altitude 10° 19:29:27 10° 155° (SSE) 2,415 6.3 -15.0°
Maximum altitude 19:34:47 73° 71° (ENE) 864 4.1 -15.9°
Drops below altitude 10° 19:40:09 10° 348° (NNW) 2,432 6.9 -16.7°
Sets 19:42:31 0° 347° (NNW) 3,369 7.7 -17.0°
